OpenBCM V1.13 (Linux)

Packet Radio Mailbox

DB0FHN

[JN59NK Nuernberg]

 Login: GUEST





  
LU9DCE > KEP      07.02.19 21:03l 256 Lines 12804 Bytes #999 (0) @ WW
BID : 18235_LU9DCE
Read: DF7EAV GUEST DK3UZ
Subj: TLE 07 02
Path: DB0FHN<DB0PM<OE2XZR<OE1XAB<HG8LXL<XE1FH<LU3DVN<LU9DCE
Sent: 190207/1816Z 18235@LU9DCE.TOR.BA.ARG.SOAM BPQ6.0.18

            __    _  _  ___  ____   ___  ____    ____  ____  ____
           (  )  / )( \/ _ \(    \ / __)(  __)  (  _ \(  _ \/ ___)
           / (_/\) \/ (\__  )) D (( (__  ) _)    ) _ ( ) _ (\___ \
           \____/\____/(___/(____/ \___)(____)  (____/(____/(____/
               ESTACION DE PACKET RADIO - BUENOS AIRES (GF05OM)
                   BOLETINES INFORMATIVOS PROGRAMADOS (BIP)
                          CASTILLOEDUARDO@ZOHO.COM

+----------------------------------------------------------------------------+
OSCAR 7
1  7530U 74089B   19038.19389076 -.00000049  00000-0 -24724-4 0  9995
2  7530 101.7257   7.3021 0011841 240.8313 189.9194 12.53636486 24044
OSCAR 11 (UoSAT 2)
1 14781U 84021B   19037.66350186 +.00000073 +00000-0 +15092-4 0  9992
2 14781 097.6249 068.5265 0009383 041.4743 318.7182 14.83061849858193
OSCAR 19 (LUSAT)
1 20442U 90005G   19037.90487301 -.00000013 +00000-0 +11587-4 0  9999
2 20442 098.6360 340.2255 0011794 172.6439 187.4920 14.32916582517444
EYESAT A
1 22825U 93061C   19038.17201232 -.00000018  00000-0  10812-4 0  9993
2 22825  98.8916  23.8881 0008911  28.5023 331.6644 14.30050592323151
ITAMSAT
1 22826U 93061D   19038.20428334 -.00000011  00000-0  13526-4 0  9990
2 22826  98.8856  23.9291 0009267  17.7334 342.4169 14.30383468323356
RADIO ROSTO
1 23439U 94085A   19037.93164661 -.00000020 +00000-0 +64064-3 0  9999
2 23439 064.8203 329.2014 0149156 138.5097 353.5595 11.27567556993030
JAS 2
1 24278U 96046B   19037.92886734 -.00000055 +00000-0 -18240-4 0  9996
2 24278 098.5168 209.3401 0349715 221.6776 135.7232 13.53088942109737
TECHSAT 1B
1 25397U 98043D   19038.40470340 -.00000009  00000-0  15192-4 0  9995
2 25397  98.6766 340.2336 0002320  71.4913 288.6518 14.23659694 69195
ISS (ZARYA)
1 25544U 98067A   19038.60379852  .00001161  00000-0  25535-4 0  9994
2 25544  51.6430 285.6465 0005222   3.3746  79.8302 15.53240927155122
PCSAT
1 26931U 01043C   19037.92140258 -.00000033 +00000-0 +19127-4 0  9991
2 26931 067.0529 343.7073 0005451 268.1173 091.9304 14.30531335906056
SAUDISAT 1C
1 27607U 02058C   19037.58762493 +.00000011 +00000-0 +22344-4 0  9992
2 27607 064.5548 093.4795 0081739 281.5855 077.6080 14.75517770867413
CUTE-1
1 27844U 03031E   19037.94873669 +.00000040 +00000-0 +37792-4 0  9990
2 27844 098.6862 048.1177 0010695 056.2063 304.0132 14.22158706809520
CUBESAT XI 4
1 27848U 03031J   19037.90350186 +.00000019 +00000-0 +28500-4 0  9997
2 27848 098.6942 048.5417 0010685 066.5195 293.7104 14.21756500809385
MOZHAYETS 4
1 27939U 03042A   19038.38741239  .00000037  00000-0  15090-4 0  9996
2 27939  98.0185 176.9325 0014127 120.7363 239.5242 14.66751595821291
CUBESAT XI 5
1 28895U 05043F   19038.11395761  .00000109  00000-0  29736-4 0  9999
2 28895  97.9370 185.5204 0017721  50.5848 309.6920 14.63628201708245
CUTE-1.7+APD II
1 32785U 08021C   19037.84087415  .00000182  00000-0  25276-4 0  9990
2 32785  97.5473  43.7975 0012665 346.9498  13.1390 14.88245655584079
DELFI C3
1 32789U 08021G   19037.73167855 +.00000803 +00000-0 +58183-4 0  9992
2 32789 097.4831 091.2771 0011627 209.9744 150.0820 15.06635985586993
SEEDS
1 32791U 08021J   19038.01277502  .00000187  00000-0  24426-4 0  9996
2 32791  97.5299  49.7701 0012349 321.9363  38.0983 14.90728450584490
YUBELEINY
1 32953U 08025A   19038.21420441  .00000021  00000-0  75656-4 0  9992
2 32953  82.4999 226.5071 0019745  57.6748 302.6240 12.43087463485979
PRISM (HITOMI)
1 33493U 09002B   19038.34887937 -.00000110  00000-0 -40201-5 0  9999
2 33493  98.1217 314.3282 0014240 260.7130  99.2463 14.96497387545516
KKS-1 (KISEKI)
1 33499U 09002H   19037.90474763 +.00000090 +00000-0 +21315-4 0  9994
2 33499 098.3541 232.3462 0007975 265.5989 094.4308 14.75404308539364
SWISSCUBE
1 35932U 09051B   19038.43121901  .00000109  00000-0  35583-4 0  9997
2 35932  98.5703 200.6759 0007319 200.5078 159.5826 14.56241937497678
BEESAT
1 35933U 09051C   19038.44247350  .00000084  00000-0  30007-4 0  9994
2 35933  98.5738 202.3770 0005280 212.1126 147.9750 14.56336303497788
ITUPSAT 1
1 35935U 09051E   19037.94353053 +.00000046 +00000-0 +21842-4 0  9993
2 35935 098.5848 202.1097 0007593 212.7613 147.3113 14.55502178497442
XIWANG-1 (HOPE-1)
1 36122U 09072B   19037.71551685 -.00000022 +00000-0 +52602-4 0  9994
2 36122 100.0713 046.3063 0006910 293.8134 066.2236 13.16348412439516
TISAT 1
1 36799U 10035E   19037.94968024 +.00000482 +00000-0 +54780-4 0  9997
2 36799 098.1348 185.8981 0012971 153.3273 206.8614 14.90997392464939
JUGNU
1 37839U 11058B   19038.02803786  .00000312  00000-0  24311-4 0  9991
2 37839  19.9626  53.1944 0018743 316.3413 253.9827 14.12641174378617
SRMSAT
1 37841U 11058D   19037.51736557  .00000293  00000-0  15784-4 0  9990
2 37841  19.9720 110.3300 0011763 183.8804 299.1966 14.10624073378009
M-CUBED/EXP-1 PRIME
1 37855U 11061F   19037.92299556 +.00001284 +00000-0 +72221-4 0  9997
2 37855 101.7271 225.7783 0174519 107.2572 254.7819 15.05118807396486
HORYU 2
1 38340U 12025D   19038.10067268  .00000153  00000-0  30397-4 0  9994
2 38340  98.3456  72.6270 0011671 177.3672 182.7599 14.75663816361758
STRAND 1
1 39090U 13009E   19037.80103948 +.00000017 +00000-0 +21223-4 0  9999
2 39090 098.4995 245.8642 0008532 327.0273 033.0379 14.35069669311458
SOMP
1 39134U 13015E   19038.42793342  .00001199  00000-0  64991-4 0  9998
2 39134  64.8633  85.5886 0018044 320.7902  39.1917 15.19792235320641
BEESAT 3
1 39135U 13015F   19037.59287950 +.00000964 +00000-0 +58073-4 0  9992
2 39135 064.8706 104.7726 0010258 270.9309 089.0641 15.17187439319813
BEESAT 2
1 39136U 13015G   19038.43823581  .00000771  00000-0  49157-4 0  9992
2 39136  64.8693 105.4773 0010186 288.2847  71.7170 15.16623071320260
CUBEBUG 1
1 39153U 13018D   19038.24451154  .00000185  00000-0  31147-4 0  9995
2 39153  97.9767 137.1551 0015607 263.7832  96.1602 14.80508620312364
ZACUBE
1 39417U 13066B   19038.03123843  .00000185  00000-0  29549-4 0  9992
2 39417  97.5702  58.8807 0060462 105.3477 255.4429 14.81050407281559
TRITON 1
1 39427U 13066M   19038.02321323  .00000110  00000-0  25722-4 0  9992
2 39427  97.6623  23.6520 0112808 226.6447 132.5318 14.67777286279027
GOMX 1
1 39430U 13066Q   19038.30932262  .00000259  00000-0  56393-4 0  9999
2 39430  97.7281   3.6514 0150398 309.0497  49.7407 14.59194786277441
HUMSAT D
1 39433U 13066T   19037.77414148  .00000324  00000-0  37009-4 0  9996
2 39433  97.5732  90.5412 0031268  23.5587 336.7057 14.92075681283409
CUBEBUG 2
1 39440U 13066AA  19037.94727099 +.00000153 +00000-0 +28108-4 0  9995
2 39440 097.5997 044.1887 0081048 152.0727 208.4869 14.75788897279341
FUNCUBE 1
1 39444U 13066AE  19038.03635342  .00000236  00000-0  35272-4 0  9991
2 39444  97.5695  60.6942 0059627  99.9180 260.8772 14.81855852280435
UWE-3
1 39446U 13066AG  19037.77098996 +.00000179 +00000-0 +30261-4 0  9990
2 39446 097.5836 050.8560 0071263 129.8043 230.9472 14.78323383279182
SPROUT
1 39770U 14029E   19038.30224242  .00000514  00000-0  63200-4 0  9997
2 39770  97.8784 142.5361 0009371 150.4545 209.7205 14.87164921255300
UNISAT 6
1 40012U 14033C   19037.70495049 +.00000148 +00000-0 +29447-4 0  9999
2 40012 097.7766 269.8407 0058745 162.2780 198.0496 14.73922786249249
DUCHIFAT 1
1 40021U 14033M   19037.76866369  .00000267  00000-0  33141-4 0  9990
2 40021  97.9220 321.9612 0014071 121.4204 238.8392 14.90514912251895
QB50P1
1 40025U 14033R   19037.77709085  .00000259  00000-0  33574-4 0  9997
2 40025  97.9071 317.6783 0013487 129.2173 231.0243 14.88861291251695
CHUBUSAT 1
1 40300U 14070C   19038.29173086  .00000722  00000-0  34595-4 0  9997
2 40300  97.3424 115.7262 0020197 153.8082 246.9290 15.21900292236035
NUDT-PHONESAT
1 40900U 15049B   19038.39683296  .00002289  00000-0  10248-3 0  9998
2 40900  97.4392  49.0551 0011566 290.1483 177.4504 15.22239686187681
ZDPS 2A
1 40901U 15049C   19038.27377888  .00001084  00000-0  57371-4 0  9994
2 40901  97.4593  46.0177 0012268 305.6512 178.8532 15.17491777187301
ZDPS 2B
1 40902U 15049D   19038.48336576  .00001054  00000-0  56246-4 0  9994
2 40902  97.4522  43.8963 0012327 301.5342 210.6957 15.17270101187317
XW-2A
1 40903U 15049E   19038.32914674  .00001975  00000-0  49367-4 0  9997
2 40903  97.3564  80.2510 0011892 260.8597 159.0794 15.41337529190012
KAITUO 1A
1 40904U 15049F   19038.31581230  .00000585  00000-0  34583-4 0  9995
2 40904  97.4640  42.6038 0013414 308.0214 107.8173 15.15240011187107
OBJECT G
1 40905U 15049G   19038.30407590  .00000335  00000-0  21944-4 0  9991
2 40905  97.4652  40.3102 0014480 301.2130 117.0145 15.14175026186994
XW-2C
1 40906U 15049H   19038.28834492  .00000762  00000-0  43688-4 0  9997
2 40906  97.4648  42.5794 0013444 299.2474 186.9915 15.15497688187091
XW-2D
1 40907U 15049J   19038.41540166  .00000913  00000-0  51426-4 0  9992
2 40907  97.4626  42.3825 0012750 296.1929 199.5891 15.15672822187123
LILACSAT 2
1 40908U 15049K   19038.31904839  .00000301  00000-0  20348-4 0  9993
2 40908  97.4744  41.3317 0014601 300.7243 184.2030 15.13695655186939
XW-2F
1 40910U 15049M   19038.50023921  .00001081  00000-0  58010-4 0  9994
2 40910  97.4601  44.2078 0013309 288.5915 223.8833 15.17014662187123
XW-2B
1 40911U 15049N   19038.37100459  .00000549  00000-0  32379-4 0  9990
2 40911  97.4648  42.9539 0012776 296.9075 170.4409 15.15605543187015
KAITUO 1B
1 40912U 15049P   19038.39150779  .00001239  00000-0  61861-4 0  9998
2 40912  97.4501  47.4697 0013499 272.0277 195.5234 15.19291043187374
TIANWANG 1C (TW-1C)
1 40926U 15051B   19038.37287330  .00009327  00000-0  15124-3 0  9994
2 40926  97.1568  84.8389 0009982 128.6441 287.9937 15.52925091189768
